Location: Unspecified
(48.8656°N, 0.0000°E)
Time: 04:30:46
(UTC+00:00)

Vanguard 1 - Pass Details

Date: 18 June 2019
Orbit: 655 x 3829 km, 34.2° (Epoch: 16 August)

Event Time Altitude Azimuth Distance (km) Brightness Sun altitude
Rises 04:24:59 0° 235° (SW) 6,715 13.6 3.1°
Reaches altitude 10° 04:30:47 10° 226° (SW) 5,145 13.1 3.9°
Maximum altitude 04:41:30 29° 174° (S) 2,714 12.2 5.4°
Drops below altitude 10° 04:48:11 10° 117° (ESE) 3,146 13.2 6.3°
Sets 04:50:47 0° 105° (ESE) 3,809 13.9 6.7°
